Livermore, CA

8:31 PM PDT on September 22, 2017 (GMT -0700)
Livermore Municipal

Weather History for KLVK - January, 2013

Change the Weather History Date:

Saturday, January 5, 2013

  Actual Average Record
Temperature  
Mean Temperature 43 °F 46 °F  
Max Temperature 53 °F 56 °F 70 °F (2012)
Min Temperature 33 °F 37 °F 18 °F (1961)
Degree Days  
Heating Degree Days 22 19  
Month to date heating degree days 115 95  
Since 1 July heating degree days 986 1126  
Cooling Degree Days 0 0  
Month to date cooling degree days 0 0  
Year to date cooling degree days 0 0  
Moisture  
Dew Point 41 °F    
Average Humidity 86    
Maximum Humidity 100    
Minimum Humidity 71    
Precipitation  
Precipitation 0.16 in 0.12 in 1.73 in (1982)
Month to date precipitation 0.16 0.63  
Year to date precipitation 0.16 0.63  
Since 1 July precipitation 8.45  
Sea Level Pressure  
Sea Level Pressure 30.15 in    
Wind  
Wind Speed 4 mph (ENE)    
Max Wind Speed 12 mph    
Max Gust Speed 15 mph    
Visibility 4 miles    
Events Rain    
T = Trace of Precipitation, MM = Missing Value Source: NWS Daily Summary

Daily Weather History Graph

Daily Weather History Graph

Search for Another Location

Airport or City:

Trip Planner

Search our weather history database for the weather conditions in past years. The results will help you decide how hot, cold, wet, or windy it might be!

Date:

Astronomy

Jan. 05, 2013 Rise Set
Actual Time 7:22 AM PST 5:03 PM PST
Civil Twilight 6:53 AM PST 5:32 PM PST
Nautical Twilight 6:21 AM PST 6:04 PM PST
Astronomical Twilight 5:49 AM PST 6:36 PM PST
Moon 12:39 AM PST (1/5) 11:52 AM PST (1/5)
Length of Visible Light 10h 38m
Length of Day
9h 40m
Last Quarter, 43% of the Moon is Illuminated
Jan 5
Last Quarter
Jan 11
New
Jan 18
First Quarter
Jan 26
Full
Feb 3
Last Quarter

Hourly Weather History & Observations

Time (PST) Temp. Windchill Dew Point Humidity Pressure Visibility Wind Dir Wind Speed Gust Speed Precip Events Conditions
12:53 AM 37.0 °F - 35.1 °F 93% 30.23 in 4.0 mi Calm Calm - N/A   Clear
1:53 AM 35.1 °F 32.2 °F 33.1 °F 92% 30.23 in 4.0 mi East 3.5 mph - N/A   Clear
2:53 AM 36.0 °F - 34.0 °F 93% 30.23 in 4.0 mi Calm Calm - N/A   Clear
3:53 AM 35.1 °F - 33.1 °F 92% 30.24 in 4.0 mi Calm Calm - N/A   Clear
4:53 AM 35.1 °F - 33.1 °F 92% 30.24 in 4.0 mi Calm Calm - N/A   Clear
5:53 AM 34.0 °F - 33.1 °F 96% 30.25 in 4.0 mi Calm Calm - N/A   Clear
6:53 AM 34.0 °F 31.0 °F 32.0 °F 92% 30.26 in 4.0 mi ENE 3.5 mph - N/A   Partly Cloudy
7:53 AM 34.0 °F - 33.1 °F 96% 30.27 in 4.0 mi Calm Calm - N/A   Partly Cloudy
8:53 AM 39.0 °F - 37.0 °F 93% 30.27 in 6.0 mi Calm Calm - N/A   Scattered Clouds
9:53 AM 44.1 °F - 39.0 °F 82% 30.27 in 5.0 mi Calm Calm - N/A   Haze
10:53 AM 48.0 °F - 39.9 °F 74% 30.25 in 6.0 mi Calm Calm - N/A   Haze
11:06 AM 50.0 °F - 42.8 °F 76% 30.22 in 8.0 mi East 5.8 mph - N/A   Clear
11:53 AM 52.0 °F - 43.0 °F 71% 30.19 in 10.0 mi NE 6.9 mph - N/A   Mostly Cloudy
12:53 PM 52.0 °F - 42.1 °F 69% 30.18 in 6.0 mi ENE 6.9 mph - N/A   Haze
1:53 PM 52.0 °F - 43.0 °F 71% 30.16 in 6.0 mi East 4.6 mph - N/A   Haze
2:00 PM 51.8 °F - 42.8 °F 71% 30.15 in 7.0 mi East 5.8 mph - N/A   Mostly Cloudy
2:53 PM 52.0 °F - 43.0 °F 71% 30.13 in 6.0 mi NE 5.8 mph - N/A   Haze
3:53 PM 51.1 °F - 43.0 °F 74% 30.12 in 6.0 mi NE 5.8 mph - N/A   Haze
4:33 PM 50.0 °F - 42.8 °F 76% 30.11 in 3.0 mi East 6.9 mph - N/A   Haze
4:53 PM 50.0 °F - 44.1 °F 80% 30.10 in 3.0 mi ENE 9.2 mph - 0.00 in Rain Light Rain
5:53 PM 48.0 °F - 45.0 °F 89% 30.12 in 3.0 mi East 5.8 mph - 0.01 in Rain Light Rain
6:53 PM 48.0 °F - 45.0 °F 89% 30.09 in 4.0 mi NE 10.4 mph - 0.04 in Rain Light Rain
7:10 PM 46.4 °F 42.9 °F 44.6 °F 93% 30.08 in 4.0 mi ENE 6.9 mph - 0.00 in Rain Light Rain
7:34 PM 46.4 °F 43.5 °F 44.6 °F 93% 30.09 in 2.5 mi East 5.8 mph - 0.01 in Rain Light Rain
7:53 PM 46.9 °F - 45.0 °F 93% 30.10 in 2.5 mi East 6.9 mph - 0.02 in Rain Light Rain
8:15 PM 46.4 °F 42.4 °F 44.6 °F 93% 30.09 in 3.0 mi ENE 8.1 mph - 0.00 in Rain Light Rain
8:34 PM 46.4 °F 45.2 °F 44.6 °F 93% 30.09 in 3.0 mi East 3.5 mph - 0.00 in Rain Light Rain
8:53 PM 46.0 °F 42.5 °F 44.1 °F 93% 30.09 in 3.0 mi East 6.9 mph - 0.01 in Rain Light Rain
9:00 PM 46.4 °F 43.5 °F 44.6 °F 93% 30.09 in 3.0 mi East 5.8 mph - 0.00 in Rain Light Rain
9:13 PM 46.4 °F 42.9 °F 44.6 °F 93% 30.08 in 3.0 mi NE 6.9 mph - 0.00 in Rain Light Rain
9:46 PM 46.4 °F 43.5 °F 44.6 °F 93% 30.08 in 3.0 mi ENE 5.8 mph - 0.00 in   Overcast
9:53 PM 46.0 °F 43.9 °F 44.1 °F 93% 30.09 in 3.0 mi NE 4.6 mph - 0.00 in   Overcast
10:01 PM 46.4 °F 44.3 °F 44.6 °F 93% 30.09 in 3.0 mi ENE 4.6 mph - 0.00 in Rain Light Rain
10:19 PM 46.4 °F - 44.6 °F 93% 30.08 in 1.5 mi Calm Calm - 0.02 in Rain Light Rain
10:36 PM 44.6 °F 42.2 °F 44.6 °F 100% 30.08 in 2.0 mi East 4.6 mph - 0.02 in Rain Light Rain
10:50 PM 44.6 °F 40.2 °F 44.6 °F 100% 30.10 in 1.5 mi East 8.1 mph - 0.02 in   Overcast
10:53 PM 45.0 °F 40.6 °F 44.1 °F 97% 30.10 in 1.5 mi East 8.1 mph - 0.02 in Rain Light Rain
11:13 PM 44.6 °F 40.2 °F 44.6 °F 100% 30.09 in 1.2 mi ENE 8.1 mph - 0.02 in Rain Light Rain
11:40 PM 44.6 °F 40.7 °F 42.8 °F 93% 30.09 in 2.5 mi ENE 6.9 mph - 0.05 in Rain Light Rain
11:50 PM 44.6 °F 40.7 °F 42.8 °F 93% 30.07 in 3.0 mi ENE 6.9 mph - 0.06 in Rain Light Rain
11:53 PM 45.0 °F 41.8 °F 43.0 °F 93% 30.08 in 2.5 mi ENE 5.8 mph - 0.06 in Rain Light Rain